Malaga, Spain

10:55 AM CEST on August 21, 2017 (GMT +0200)
Malaga

Weather History for LEMG - October, 2011

Change the Weather History Date:

Sunday, October 23, 2011

  Actual Average Record
Temperature  
Mean Temperature 64 °F -  
Max Temperature 70 °F 66 °F 82 °F (2004)
Min Temperature 59 °F 52 °F 50 °F (1998)
Growing Degree Days 14 (Base 50)    
Moisture  
Dew Point 59 °F    
Average Humidity 84    
Maximum Humidity 94    
Minimum Humidity 69    
Precipitation  
Precipitation 0.47 in 0.13 in - ()
Sea Level Pressure  
Sea Level Pressure 29.95 in    
Wind  
Wind Speed 6 mph ()    
Max Wind Speed 10 mph    
Max Gust Speed -    
Visibility 6.3 miles    
Events Rain , Thunderstorm    
Averages and records for this station are not official NWS values.
T = Trace of Precipitation, MM = Missing Value Source: Averaged Metar Reports

Daily Weather History Graph

Daily Weather History Graph

Search for Another Location

Airport or City:

Trip Planner

Search our weather history database for the weather conditions in past years. The results will help you decide how hot, cold, wet, or windy it might be!

Date:

Astronomy

Oct. 23, 2011 Rise Set
Actual Time 8:32 AM CEST 7:31 PM CEST
Civil Twilight 8:05 AM CEST 7:58 PM CEST
Nautical Twilight 7:35 AM CEST 8:28 PM CEST
Astronomical Twilight 7:05 AM CEST 8:58 PM CEST
Moon 4:28 AM CEST (10/23) 5:10 PM CEST (10/23)
Length of Visible Light 11h 52m
Length of Day
10h 59m
Waning Crescent, 17% of the Moon is Illuminated
Oct 23
Waning Crescent
Oct 26
New
Nov 2
First Quarter
Nov 10
Full
Nov 18
Last Quarter

Hourly Weather History & Observations

Time (CEST) Temp. Dew Point Humidity Pressure Visibility Wind Dir Wind Speed Gust Speed Precip Events Conditions
12:00 AM 62.6 °F 57.2 °F 82% 30.04 in 6.2 mi WNW 6.9 mph - N/A   Scattered Clouds
12:30 AM 62.6 °F 57.2 °F 82% 30.04 in 6.2 mi WNW 6.9 mph - N/A   Scattered Clouds
1:00 AM 62.6 °F 57.2 °F 82% 30.01 in 6.2 mi WNW 5.8 mph - N/A   Scattered Clouds
1:30 AM 60.8 °F 57.2 °F 88% 30.01 in 6.2 mi WNW 6.9 mph - N/A   Scattered Clouds
2:00 AM 62 °F 57 °F 80% 30.01 in 12 mi West 6.9 mph - -   Scattered Clouds
2:00 AM 60.8 °F 57.2 °F 88% 29.98 in 6.2 mi West 6.9 mph - N/A   Partly Cloudy
2:30 AM 62.6 °F 57.2 °F 82% 29.98 in 6.2 mi West 8.1 mph - N/A   Partly Cloudy
3:00 AM 60.8 °F 57.2 °F 88% 29.98 in 6.2 mi West 6.9 mph - N/A   Partly Cloudy
3:30 AM 60.8 °F 57.2 °F 88% 29.98 in 6.2 mi NW 4.6 mph - N/A   Partly Cloudy
4:00 AM 60.8 °F 57.2 °F 88% 29.98 in 6.2 mi WNW 8.1 mph - N/A   Partly Cloudy
4:30 AM 60.8 °F 57.2 °F 88% 29.98 in 6.2 mi WNW 8.1 mph - N/A   Partly Cloudy
5:00 AM 60.8 °F 57.2 °F 88% 29.98 in 6.2 mi WNW 6.9 mph - N/A   Scattered Clouds
5:30 AM 62.6 °F 57.2 °F 82% 29.95 in 6.2 mi West 8.1 mph - N/A   Scattered Clouds
6:00 AM 62.6 °F 57.2 °F 82% 29.95 in 6.2 mi West 8.1 mph - N/A   Scattered Clouds
6:30 AM 60.8 °F 57.2 °F 88% 29.95 in 6.2 mi NW 4.6 mph - N/A   Scattered Clouds
7:00 AM 59.0 °F 57.2 °F 94% 29.95 in 6.2 mi NW 4.6 mph - N/A   Scattered Clouds
7:30 AM 59.0 °F 55.4 °F 88% 29.95 in 6.2 mi WNW 3.5 mph - N/A   Mostly Cloudy
8:00 AM 60 °F 57 °F 87% 29.97 in 9 mi WNW 5.8 mph - -   Mostly Cloudy
8:00 AM 59.0 °F 57.2 °F 94% 29.95 in 6.2 mi WNW 5.8 mph - N/A   Mostly Cloudy
8:30 AM 60.8 °F 57.2 °F 88% 29.98 in 6.2 mi West 8.1 mph - N/A   Scattered Clouds
8:37 AM 60.8 °F 57.2 °F 88% 29.98 in 6.2 mi West 8.1 mph - N/A   Scattered Clouds
8:45 AM 60.8 °F 57.2 °F 88% 29.98 in 6.2 mi WNW 6.9 mph - N/A Thunderstorm Mostly Cloudy
9:00 AM 60.8 °F 57.2 °F 88% 29.95 in 6.2 mi WNW 6.9 mph - N/A Thunderstorm Thunderstorm
9:01 AM 60.8 °F 57.2 °F 88% 29.98 in 6.2 mi West 5.8 mph - N/A Rain , Thunderstorm Light Thunderstorms and Rain
9:21 AM 60.8 °F 57.2 °F 88% 29.98 in 1.9 mi West 8.1 mph - N/A Rain , Thunderstorm Thunderstorms and Rain
9:30 AM 60.8 °F 59.0 °F 94% 29.98 in 0.6 mi West 6.9 mph - N/A Rain , Thunderstorm Thunderstorms and Rain
9:32 AM 62.6 °F 59.0 °F 88% 29.95 in 3.7 mi East 10.4 mph - N/A Rain , Thunderstorm Light Thunderstorms and Rain
9:39 AM 62.6 °F 59.0 °F 88% 29.95 in 6.2 mi East 5.8 mph - N/A Rain Light Rain
10:00 AM 62.6 °F 59.0 °F 88% 29.98 in 6.2 mi SSW 5.8 mph - N/A   Scattered Clouds
10:30 AM 64.4 °F 60.8 °F 88% 30.01 in 6.2 mi South 3.5 mph - N/A   Scattered Clouds
11:00 AM 64.4 °F 60.8 °F 88% 30.01 in 6.2 mi Variable 2.3 mph - N/A   Scattered Clouds
11:30 AM 66.2 °F 60.8 °F 83% 30.01 in 6.2 mi ESE 4.6 mph - N/A   Scattered Clouds
12:00 PM 68.0 °F 60.8 °F 78% 29.98 in 6.2 mi East 4.6 mph - N/A   Scattered Clouds
12:30 PM 69.8 °F 60.8 °F 73% 29.98 in 6.2 mi ESE 6.9 mph - N/A   Scattered Clouds
1:00 PM 68.0 °F 60.8 °F 78% 29.98 in 6.2 mi ESE 6.9 mph - N/A   Scattered Clouds
1:30 PM 69.8 °F 62.6 °F 78% 29.98 in 6.2 mi SE 6.9 mph - N/A   Scattered Clouds
2:00 PM 70 °F 62 °F 69% 29.97 in 12 mi SSE 5.8 mph - -   Partly Cloudy
2:00 PM 68.0 °F 59.0 °F 73% 29.95 in 6.2 mi SSE 5.8 mph - N/A   Mostly Cloudy
2:30 PM 68.0 °F 60.8 °F 78% 29.95 in 6.2 mi SE 4.6 mph - N/A   Mostly Cloudy
3:00 PM 68.0 °F 60.8 °F 78% 29.92 in 6.2 mi SE 6.9 mph - N/A   Mostly Cloudy
3:30 PM 68.0 °F 60.8 °F 78% 29.92 in 6.2 mi SE 3.5 mph - N/A Rain Light Rain
4:00 PM 68.0 °F 60.8 °F 78% 29.92 in 6.2 mi Variable 1.2 mph - N/A   Scattered Clouds
4:30 PM 69.8 °F 60.8 °F 73% 29.89 in 6.2 mi ESE 4.6 mph - N/A   Scattered Clouds
5:00 PM 68.0 °F 60.8 °F 78% 29.89 in 6.2 mi ESE 5.8 mph - N/A   Scattered Clouds
5:30 PM 68.0 °F 60.8 °F 78% 29.89 in 6.2 mi East 6.9 mph - N/A   Scattered Clouds
6:00 PM 68.0 °F 60.8 °F 78% 29.89 in 6.2 mi SE 5.8 mph - N/A   Scattered Clouds
6:30 PM 68.0 °F 62.6 °F 83% 29.86 in 6.2 mi East 4.6 mph - N/A   Scattered Clouds
7:00 PM 66.2 °F 62.6 °F 88% 29.86 in 6.2 mi Variable 2.3 mph - N/A   Scattered Clouds
7:30 PM 68.0 °F 62.6 °F 83% 29.86 in 6.2 mi ESE 4.6 mph - N/A   Scattered Clouds
8:00 PM 67 °F 63 °F 84% 29.87 in 12 mi ESE 4.6 mph - -   Partly Cloudy
8:00 PM 68.0 °F 62.6 °F 83% 29.86 in 6.2 mi Variable 2.3 mph - N/A   Partly Cloudy
8:30 PM 66.2 °F 62.6 °F 88% 29.86 in 6.2 mi Variable 2.3 mph - N/A   Scattered Clouds
9:00 PM 66.2 °F 62.6 °F 88% 29.86 in 6.2 mi SSE 3.5 mph - N/A   Scattered Clouds
9:30 PM 66.2 °F 62.6 °F 88% 29.86 in 6.2 mi Variable 2.3 mph - N/A   Scattered Clouds
10:00 PM 66.2 °F 62.6 °F 88% 29.86 in 6.2 mi South 2.3 mph - N/A   Mostly Cloudy
10:30 PM 66.2 °F 62.6 °F 88% 29.86 in 6.2 mi South 3.5 mph - N/A   Scattered Clouds
11:00 PM 66.2 °F 60.8 °F 83% 29.86 in 6.2 mi South 3.5 mph - N/A   Scattered Clouds
11:30 PM 66.2 °F 60.8 °F 83% 29.86 in 3.7 mi SSE 3.5 mph - N/A   Partly Cloudy